Weather History for EGDY - September, 2012

Change the Weather History Date:

Wednesday, September 26, 2012

  Actual Average Record
Temperature  
Mean Temperature 55 °F -  
Max Temperature 60 °F 58 °F 71 °F (2006)
Min Temperature 50 °F 45 °F 32 °F (2010)
Degree Days  
Heating Degree Days 10    
Growing Degree Days 5 (Base 50)    
Moisture  
Dew Point 49 °F    
Average Humidity 85    
Maximum Humidity 100    
Minimum Humidity 72    
Precipitation  
Precipitation 0.08 in - - ()
Sea Level Pressure  
Sea Level Pressure 29.25 in    
Wind  
Wind Speed 6 mph ()    
Max Wind Speed 10 mph    
Max Gust Speed -    
Visibility 7.3 miles    
Events Rain    
Averages and records for this station are not official NWS values.
T = Trace of Precipitation, MM = Missing Value Source: Averaged Metar Reports

Daily Weather History Graph

Daily Weather History Graph

Search for Another Location

Airport or City:

Trip Planner

Search our weather history database for the weather conditions in past years. The results will help you decide how hot, cold, wet, or windy it might be!

Date:

Astronomy

Sep. 26, 2012 Rise Set
Actual Time 7:03 AM BST 6:59 PM BST
Civil Twilight 6:30 AM BST 7:31 PM BST
Nautical Twilight 5:51 AM BST 8:10 PM BST
Astronomical Twilight 5:11 AM BST 8:50 PM BST
Moon 5:07 PM BST (9/26) 2:52 AM BST (9/26)
Length of Visible Light 13h 01m
Length of Day
11h 55m
Waxing Gibbous, 86% of the Moon is Illuminated
Sep 26
Waxing Gibbous
Sep 30
Full
Oct 8
Last Quarter
Oct 15
New
Oct 22
First Quarter

Hourly Weather History & Observations

Time (BST) Temp. Dew Point Humidity Pressure Visibility Wind Dir Wind Speed Gust Speed Precip Events Conditions
12:50 AM 50 °F 46 °F 82% 29.15 in 16 mi SSW 6.9 mph - -   Partly Cloudy
12:50 AM 50.0 °F 46.4 °F 87% 29.12 in - SSW 6.9 mph - N/A   Clear
1:50 AM 50.0 °F 46.4 °F 87% 29.12 in 6.2 mi South 4.6 mph - N/A   Mostly Cloudy
2:50 AM 50.0 °F 46.4 °F 87% 29.12 in 6.2 mi South 5.8 mph - N/A Rain Light Rain Showers
3:50 AM 51 °F 46 °F 79% 29.13 in 12 mi SSW 8.1 mph - - Rain Light Rain Showers
3:50 AM 50.0 °F 46.4 °F 87% 29.12 in 6.2 mi SSW 8.1 mph - N/A Rain Light Rain Showers
4:50 AM 51.8 °F 46.4 °F 82% 29.12 in 6.2 mi South 8.1 mph - N/A   Mostly Cloudy
5:50 AM 51.8 °F 48.2 °F 88% 29.12 in 6.2 mi SSW 9.2 mph - N/A Rain Light Rain
6:50 AM 51 °F 48 °F 87% 29.14 in 9 mi SSW 6.9 mph - - Rain Light Rain Showers
6:50 AM 51.8 °F 48.2 °F 88% 29.12 in 6.2 mi SSW 6.9 mph - N/A Rain Light Rain Showers
7:50 AM 50.0 °F 50.0 °F 100% 29.12 in 6.2 mi SSW 4.6 mph - N/A   Mostly Cloudy
8:50 AM 51.8 °F 50.0 °F 94% 29.15 in 6.2 mi SSE 6.9 mph - N/A   Scattered Clouds
9:50 AM 55 °F 51 °F 81% 29.19 in 12 mi SSW 8.1 mph - -   Partly Cloudy
9:50 AM 55.4 °F 51.8 °F 88% 29.18 in 6.2 mi SSW 8.1 mph - N/A   Scattered Clouds
10:50 AM 57.2 °F 50.0 °F 77% 29.21 in 6.2 mi SSW 9.2 mph - N/A   Scattered Clouds
11:50 AM 57.2 °F 50.0 °F 77% 29.21 in 6.2 mi South 5.8 mph - N/A Rain Light Rain Showers
12:50 PM 59.0 °F 50.0 °F 72% 29.24 in 6.2 mi South 8.1 mph - N/A   Scattered Clouds
1:50 PM 57.2 °F 48.2 °F 72% 29.24 in 4.3 mi SSW 6.9 mph - N/A Rain Light Rain Showers
2:50 PM 57.2 °F 50.0 °F 77% 29.27 in 6.2 mi South 9.2 mph - N/A Rain Light Rain Showers
3:50 PM 56 °F 50 °F 75% 29.29 in 11 mi ESE 4.6 mph - - Rain Light Rain Showers
3:50 PM 55.4 °F 50.0 °F 82% 29.27 in 6.2 mi ESE 4.6 mph - N/A Rain Light Rain Showers
4:50 PM 57.2 °F 51.8 °F 82% 29.30 in 6.2 mi NE 10.4 mph - N/A   Mostly Cloudy
5:50 PM 53.6 °F 50.0 °F 88% 29.33 in 6.2 mi NE 9.2 mph - N/A Rain Light Rain Showers
6:50 PM 54 °F 51 °F 86% 29.37 in 9 mi NE 5.8 mph - - Rain Light Rain Showers
6:50 PM 53.6 °F 51.8 °F 94% 29.36 in 6.2 mi NE 5.8 mph - N/A   Mostly Cloudy
7:50 PM 53.6 °F 50.0 °F 88% 29.39 in 6.2 mi North 8.1 mph - N/A   Mostly Cloudy
8:50 PM 51.8 °F 48.2 °F 88% 29.42 in 6.2 mi North 6.9 mph - N/A   Mostly Cloudy
9:50 PM 51 °F 48 °F 87% 29.47 in 9 mi North 6.9 mph - -   Partly Cloudy
9:50 PM 51.8 °F 48.2 °F 88% 29.44 in 6.2 mi North 6.9 mph - N/A   Mostly Cloudy
10:50 PM 51.8 °F 48.2 °F 88% 29.47 in 6.2 mi North 4.6 mph - N/A   Mostly Cloudy
11:50 PM 51.8 °F 50.0 °F 94% 29.50 in 6.2 mi NNW 8.1 mph - N/A   Mostly Cloudy